EW9318 Weather Reports


time (UTC)temp
C
wind
direction
speed
KPH
gust
KPH
rain 1hr
cm
rain 24hr
cm
rain mn
cm
humidity
%
barometer
mb
20260507071517 5 292 4.8 11.3 0.00 0.00 0.00 70 1012.1
20260507071015 5 302 6.4 11.3 0.00 0.00 0.00 70 1012.0
20260507070515 5 298 4.8 11.3 0.00 0.00 0.00 70 1012.0
20260507070015 5 293 6.4 12.9 0.00 0.00 0.00 69 1012.0
20260507065515 5 300 8.0 17.7 0.00 0.00 0.00 69 1012.0
20260507065016 5 304 8.0 17.7 0.00 0.00 0.00 69 1012.0
20260507064515 5 293 8.0 14.5 0.00 0.00 0.00 69 1012.0
20260507064015 6 290 8.0 14.5 0.00 0.00 0.00 68 1012.1
20260507063515 6 295 6.4 12.9 0.00 0.00 0.00 68 1012.1
20260507063035 6 296 8.0 14.5 0.00 0.00 0.00 68 1012.1
20260507062515 6 302 9.7 14.5 0.00 0.00 0.00 68 1012.2
20260507062015 6 298 8.0 16.1 0.00 0.00 0.00 67 1012.1
20260507061516 6 306 9.7 16.1 0.00 0.00 0.00 67 1012.1
20260507061016 6 292 8.0 14.5 0.00 0.00 0.00 67 1012.0
20260507060536 6 279 8.0 14.5 0.00 0.00 0.00 66 1012.0
20260507060015 6 273 6.4 14.5 0.00 0.00 0.00 66 1012.0
20260507055515 6 267 4.8 11.3 0.00 0.00 0.00 65 1012.0
20260507055035 6 266 6.4 11.3 0.00 0.00 0.00 64 1011.9
20260507054515 6 271 6.4 9.7 0.00 0.00 0.00 63 1012.0
20260507054015 6 273 6.4 9.7 0.00 0.00 0.00 62 1012.0
20260507053515 6 283 4.8 11.3 0.00 0.00 0.00 62 1012.0
20260507053036 6 277 4.8 11.3 0.00 0.00 0.00 62 1012.0
20260507052557 6 274 4.8 11.3 0.00 0.00 0.00 61 1012.1
20260507052057 6 283 4.8 9.7 0.00 0.00 0.00 62 1012.1
20260507051517 6 279 3.2 6.4 0.00 0.00 0.00 62 1012.0
20260507051017 6 264 3.2 9.7 0.00 0.00 0.00 64 1012.1
20260507050517 6 265 4.8 9.7 0.00 0.00 0.00 63 1012.0
20260507050017 6 272 3.2 6.4 0.00 0.00 0.00 64 1012.0
20260507045518 6 267 1.6 4.8 0.00 0.00 0.00 65 1011.9
20260507045017 6 277 1.6 4.8 0.00 0.00 0.00 64 1012.0
20260507044517 6 277 1.6 3.2 0.00 0.00 0.00 65 1011.9
20260507044017 6 277 1.6 3.2 0.00 0.00 0.00 65 1012.0
20260507043518 6 281 1.6 3.2 0.00 0.00 0.00 65 1012.0
20260507043057 6 284 1.6 3.2 0.00 0.00 0.00 64 1012.0
20260507042517 7 284 1.6 3.2 0.00 0.00 0.00 64 1012.0
20260507042017 7 0.0 0.0 0.00 0.00 0.00 63 1012.0
20260507041517 7 0.0 0.0 0.00 0.00 0.00 61 1012.0
20260507041017 7 0.0 0.0 0.00 0.00 0.00 61 1012.0
20260507040517 7 0.0 0.0 0.00 0.00 0.00 60 1012.1
20260507040018 7 0.0 0.0 0.00 0.00 0.00 58 1012.0
20260507035515 7 0.0 0.0 0.00 0.00 0.00 57 1012.1
20260507035036 7 0.0 0.0 0.00 0.00 0.00 57 1012.1
20260507034535 7 0.0 0.0 0.00 0.00 0.00 56 1012.1
20260507034015 7 0.0 0.0 0.00 0.00 0.00 56 1012.1
20260507033515 7 0.0 3.2 0.00 0.00 0.00 56 1012.1
20260507033015 7 277 0.0 3.2 0.00 0.00 0.00 57 1012.1
20260507032515 7 277 0.0 6.4 0.00 0.00 0.00 57 1012.2
20260507032035 7 276 1.6 6.4 0.00 0.00 0.00 53 1012.1
20260507031515 7 287 1.6 4.8 0.00 0.00 0.00 53 1012.1
20260507031015 7 280 1.6 3.2 0.00 0.00 0.00 54 1012.1
20260507030515 8 325 1.6 4.8 0.00 0.00 0.00 52 1012.1
20260507030015 8 335 3.2 4.8 0.00 0.00 0.00 54 1012.2
20260507025515 8 287 1.6 4.8 0.00 0.00 0.00 51 1012.2
20260507025035 8 284 1.6 3.2 0.00 0.00 0.00 52 1012.3
20260507024515 8 304 1.6 6.4 0.00 0.00 0.00 51 1012.2
20260507024015 8 311 3.2 6.4 0.00 0.00 0.00 49 1012.2
20260507023515 8 319 3.2 6.4 0.00 0.00 0.00 49 1012.2
20260507023015 8 307 3.2 6.4 0.00 0.00 0.00 49 1012.2
20260507022515 8 317 1.6 4.8 0.00 0.00 0.00 48 1012.1
20260507022016 8 316 1.6 4.8 0.00 0.00 0.00 48 1012.0
20260507021515 8 324 3.2 6.4 0.00 0.00 0.00 48 1012.0
20260507021016 8 329 3.2 6.4 0.00 0.00 0.00 48 1012.0
20260507020515 8 320 3.2 6.4 0.00 0.00 0.00 48 1012.0
20260507020016 8 309 1.6 6.4 0.00 0.00 0.00 47 1011.8
20260507015515 8 307 3.2 6.4 0.00 0.00 0.00 46 1011.8
20260507015016 8 311 3.2 6.4 0.00 0.00 0.00 46 1011.7
20260507014515 8 324 3.2 6.4 0.00 0.00 0.00 46 1011.6
20260507014015 8 323 3.2 6.4 0.00 0.00 0.00 46 1011.7
20260507013515 9 319 3.2 4.8 0.00 0.00 0.00 46 1011.7
20260507013056 9 332 3.2 6.4 0.00 0.00 0.00 46 1011.6
20260507012516 9 309 3.2 6.4 0.00 0.00 0.00 46 1011.6
20260507012036 9 290 1.6 4.8 0.00 0.00 0.00 45 1011.6
20260507011515 9 295 3.2 4.8 0.00 0.00 0.00 44 1011.6
20260507011017 9 298 1.6 6.4 0.00 0.00 0.00 44 1011.6
20260507010516 9 296 3.2 6.4 0.00 0.00 0.00 44 1011.5
20260507010017 9 280 3.2 6.4 0.00 0.00 0.00 44 1011.5
20260507005517 9 273 3.2 6.4 0.00 0.00 0.00 44 1011.6
20260507005017 9 273 3.2 11.3 0.00 0.00 0.00 43 1011.4
20260507004518 10 285 4.8 11.3 0.00 0.00 0.00 42 1011.5
20260507004018 10 289 4.8 9.7 0.00 0.00 0.00 42 1011.4
20260507003537 10 290 3.2 6.4 0.00 0.00 0.00 42 1011.4
20260507003017 10 279 3.2 9.7 0.00 0.00 0.00 42 1011.4
20260507002517 10 273 4.8 12.9 0.00 0.00 0.00 42 1011.2
20260507002037 10 275 6.4 16.1 0.00 0.00 0.00 42 1011.2
20260507001517 10 273 6.4 16.1 0.00 0.00 0.00 42 1011.1
20260507001017 10 275 4.8 12.9 0.00 0.00 0.00 42 1011.1
20260507000518 10 284 6.4 16.1 0.00 0.00 0.00 41 1011.1
20260507000018 10 293 9.7 16.1 0.00 0.00 0.00 41 1011.0
20260506235517 10 303 6.4 12.9 0.00 0.00 0.00 41 1011.0
20260506235017 10 308 4.8 9.7 0.00 0.00 0.00 41 1011.1
20260506234518 10 288 4.8 16.1 0.00 0.00 0.00 40 1011.0
20260506234018 10 275 9.7 16.1 0.00 0.00 0.00 39 1011.0
20260506233537 10 287 6.4 16.1 0.00 0.00 0.00 40 1011.0
20260506233016 10 288 8.0 19.3 0.00 0.00 0.00 40 1010.9
20260506232517 10 318 9.7 19.3 0.00 0.00 0.00 40 1011.0
20260506232016 10 300 9.7 19.3 0.00 0.00 0.00 39 1011.0
20260506231518 10 288 11.3 17.7 0.00 0.00 0.00 39 1011.0
20260506231017 10 289 9.7 22.5 0.00 0.00 0.00 39 1011.0
20260506230517 10 307 12.9 22.5 0.00 0.00 0.00 39 1011.0
20260506230017 11 300 9.7 19.3 0.00 0.00 0.00 38 1011.0
20260506225517 11 297 12.9 19.3 0.00 0.00 0.00 37 1011.0
20260506225037 11 264 9.7 19.3 0.00 0.00 0.00 37 1011.1
20260506224517 11 251 11.3 27.4 0.00 0.00 0.00 38 1011.1
20260506224018 11 275 14.5 27.4 0.00 0.00 0.00 37 1011.2
20260506223517 11 257 11.3 24.1 0.00 0.00 0.00 38 1011.1
20260506223017 11 260 14.5 27.4 0.00 0.00 0.00 39 1011.1
20260506222518 11 249 16.1 27.4 0.00 0.00 0.00 38 1011.1
20260506222016 11 287 17.7 32.2 0.00 0.00 0.00 37 1011.2
20260506221517 11 319 17.7 32.2 0.00 0.00 0.00 37 1011.1
20260506221016 11 305 12.9 24.1 0.00 0.00 0.00 38 1011.1
20260506220516 11 305 17.7 24.1 0.00 0.00 0.00 37 1011.1
20260506220016 11 293 12.9 22.5 0.00 0.00 0.00 37 1011.1
20260506215518 11 284 12.9 25.7 0.00 0.00 0.00 38 1011.1
20260506215017 11 304 16.1 25.7 0.00 0.00 0.00 37 1011.0
20260506214537 11 305 12.9 20.9 0.00 0.00 0.00 38 1010.9
20260506214016 11 301 12.9 25.7 0.00 0.00 0.00 37 1011.0
20260506213516 11 310 14.5 25.7 0.00 0.00 0.00 37 1011.1
20260506213017 11 308 12.9 22.5 0.00 0.00 0.00 38 1011.1
20260506212537 11 309 16.1 25.7 0.00 0.00 0.00 37 1011.0
20260506212016 11 317 16.1 27.4 0.00 0.00 0.00 36 1011.1
20260506211516 11 295 16.1 27.4 0.00 0.00 0.00 35 1011.0
20260506211017 11 290 14.5 25.7 0.00 0.00 0.00 37 1011.1
20260506210517 11 263 16.1 27.4 0.00 0.00 0.00 41 1011.1
20260506210016 11 293 16.1 27.4 0.00 0.00 0.00 36 1011.2
20260506205516 11 298 14.5 30.6 0.00 0.00 0.00 36 1011.1
20260506205016 11 288 17.7 30.6 0.00 0.00 0.00 37 1011.3
20260506204517 11 293 14.5 25.7 0.00 0.00 0.00 37 1011.3
20260506204036 11 289 14.5 30.6 0.00 0.00 0.00 37 1011.3
20260506203516 11 305 19.3 30.6 0.00 0.00 0.00 36 1011.3
20260506203016 11 276 14.5 30.6 0.00 0.00 0.00 39 1011.3
20260506202516 11 285 12.9 30.6 0.00 0.00 0.00 36 1011.3
20260506202016 11 267 19.3 49.9 0.00 0.00 0.00 36 1011.5
20260506201517 11 261 17.7 49.9 0.00 0.00 0.00 36 1011.6
20260506201016 11 268 9.7 24.1 0.00 0.00 0.00 40 1011.5
20260506200556 11 258 16.1 24.1 0.00 0.00 0.00 38 1011.7
20260506200016 11 260 19.3 24.1 0.00 0.00 0.00 37 1011.6
20260506195516 11 294 17.7 25.7 0.00 0.00 0.00 39 1011.7
20260506195016 11 314 14.5 30.6 0.00 0.00 0.00 35 1011.7
20260506194536 11 306 16.1 30.6 0.00 0.00 0.00 37 1011.8
20260506194016 11 308 14.5 29.0 0.00 0.00 0.00 36 1011.7
20260506193517 10 300 17.7 29.0 0.00 0.00 0.00 36 1011.8
20260506193016 10 296 17.7 27.4 0.00 0.00 0.00 36 1011.7
20260506192516 10 286 16.1 25.7 0.00 0.00 0.00 36 1011.7
20260506192037 10 286 11.3 25.7 0.00 0.00 0.00 35 1011.7
20260506191516 11 305 17.7 25.7 0.00 0.00 0.00 35 1011.8
20260506191017 11 274 16.1 25.7 0.00 0.00 0.00 35 1011.6
20260506190516 11 282 14.5 29.0 0.00 0.00 0.00 37 1011.6
20260506190016 10 290 16.1 29.0 0.00 0.00 0.00 36 1011.7
20260506185516 10 283 16.1 29.0 0.00 0.00 0.00 38 1011.8
20260506185016 10 300 17.7 29.0 0.00 0.00 0.00 36 1011.9
20260506184517 11 279 17.7 27.4 0.00 0.00 0.00 37 1011.9
20260506184016 10 262 16.1 27.4 0.00 0.00 0.00 36 1011.8
20260506183516 10 281 16.1 25.7 0.00 0.00 0.00 36 1011.9
20260506183016 11 287 14.5 27.4 0.00 0.00 0.00 37 1011.7
20260506182516 11 256 16.1 32.2 0.00 0.00 0.00 39 1011.7
20260506182016 10 295 19.3 32.2 0.00 0.00 0.00 40 1011.8
20260506181516 10 310 14.5 29.0 0.00 0.00 0.00 38 1011.6
20260506181016 10 313 19.3 29.0 0.00 0.00 0.00 36 1011.9
20260506180517 10 279 17.7 27.4 0.00 0.00 0.00 39 1011.7
20260506180036 10 279 14.5 27.4 0.00 0.00 0.00 39 1011.7
20260506175516 10 307 12.9 24.1 0.00 0.00 0.00 37 1011.8
20260506175016 10 311 9.7 24.1 0.00 0.00 0.00 38 1011.6
20260506174517 10 312 14.5 24.1 0.00 0.00 0.00 38 1011.7
20260506174016 10 269 9.7 25.7 0.00 0.00 0.00 37 1011.8
20260506173516 10 291 14.5 25.7 0.00 0.00 0.00 37 1011.7
20260506173017 10 275 12.9 30.6 0.00 0.00 0.00 38 1011.8
20260506172536 10 272 16.1 30.6 0.00 0.00 0.00 38 1011.9
20260506172016 10 284 16.1 25.7 0.00 0.00 0.00 37 1011.8
20260506171516 11 287 16.1 25.7 0.00 0.00 0.00 37 1011.8
20260506171017 10 321 14.5 24.1 0.00 0.00 0.00 39 1011.9
20260506170516 10 306 12.9 24.1 0.00 0.00 0.00 38 1011.9
20260506170037 10 295 9.7 17.7 0.00 0.00 0.00 38 1011.9
20260506165516 10 272 12.9 27.4 0.00 0.00 0.00 39 1012.0
20260506165016 10 301 11.3 27.4 0.00 0.00 0.00 38 1011.9
20260506164516 10 314 9.7 20.9 0.00 0.00 0.00 43 1011.9
20260506164016 10 321 14.5 22.5 0.00 0.00 0.00 40 1011.9
20260506163516 10 344 11.3 24.1 0.00 0.00 0.00 40 1011.9
20260506163016 10 344 16.1 27.4 0.00 0.00 0.00 42 1011.9
20260506162516 10 323 17.7 29.0 0.00 0.00 0.00 38 1011.8
20260506162016 10 331 9.7 29.0 0.00 0.00 0.00 39 1011.8
20260506161516 10 9 11.3 25.7 0.00 0.00 0.00 42 1011.8
20260506161037 10 310 14.5 25.7 0.00 0.00 0.00 40 1011.9
20260506160516 10 280 14.5 24.1 0.00 0.00 0.00 39 1011.9
20260506160016 10 291 14.5 24.1 0.00 0.00 0.00 39 1011.9
20260506155536 10 318 8.0 20.9 0.00 0.00 0.00 39 1012.0
20260506155016 10 324 11.3 20.9 0.00 0.00 0.00 39 1012.0
20260506154536 10 292 9.7 19.3 0.00 0.00 0.00 40 1011.9
20260506154016 10 314 12.9 25.7 0.00 0.00 0.00 43 1011.9
20260506153516 10 308 17.7 25.7 0.00 0.00 0.00 38 1012.0
20260506153016 10 278 11.3 19.3 0.00 0.00 0.00 37 1011.8
20260506152536 10 1 9.7 17.7 0.00 0.00 0.00 42 1011.9
20260506152037 10 323 6.4 14.5 0.00 0.00 0.00 41 1011.9
20260506151516 10 319 4.8 12.9 0.00 0.00 0.00 44 1011.9
20260506151016 10 38 4.8 12.9 0.00 0.00 0.00 42 1012.0
20260506150536 9 16 4.8 14.5 0.00 0.00 0.00 43 1012.0
20260506150016 8 316 6.4 14.5 0.00 0.00 0.00 41 1011.9
20260506145517 8 346 8.0 20.9 0.00 0.00 0.00 42 1012.0
20260506145016 8 306 11.3 20.9 0.00 0.00 0.00 40 1011.9
20260506144516 8 282 9.7 16.1 0.00 0.00 0.00 41 1011.8
20260506144016 8 52 1.6 9.7 0.00 0.00 0.00 44 1011.7
20260506143516 8 325 3.2 12.9 0.00 0.00 0.00 44 1011.7
20260506143036 8 308 4.8 16.1 0.00 0.00 0.00 43 1011.7
20260506142515 9 332 6.4 16.1 0.00 0.00 0.00 45 1011.6
20260506142016 9 301 1.6 12.9 0.00 0.00 0.00 45 1011.5
20260506141537 9 68 1.6 8.0 0.00 0.00 0.00 47 1011.5
20260506141016 8 60 1.6 4.8 0.00 0.00 0.00 50 1011.5
20260506140516 8 73 1.6 6.4 0.00 0.00 0.00 51 1011.5
20260506140017 8 102 1.6 6.4 0.00 0.00 0.00 51 1011.4
20260506135516 8 93 3.2 9.7 0.00 0.00 0.00 52 1011.4
20260506135037 7 53 4.8 11.3 0.00 0.00 0.00 52 1011.5
20260506134536 7 13 3.2 12.9 0.00 0.00 0.00 55 1011.4
20260506134037 7 27 4.8 12.9 0.00 0.00 0.00 56 1011.3
20260506133536 7 16 4.8 11.3 0.00 0.00 0.00 58 1011.3
20260506133016 7 33 6.4 14.5 0.00 0.00 0.00 57 1011.2
20260506132516 7 39 8.0 14.5 0.00 0.00 0.00 58 1011.0
20260506132017 7 50 4.8 12.9 0.00 0.00 0.00 59 1011.0
20260506131515 7 32 6.4 14.5 0.00 0.00 0.00 59 1011.1
20260506131015 7 43 8.0 14.5 0.00 0.00 0.00 60 1011.1
20260506130516 7 43 6.4 14.5 0.00 0.00 0.00 60 1011.1
20260506130016 7 25 6.4 14.5 0.00 0.00 0.00 63 1011.1
20260506125515 7 31 6.4 12.9 0.00 0.00 0.00 63 1011.0
20260506125037 6 60 4.8 11.3 0.00 0.00 0.00 65 1011.1
20260506124015 6 46 4.8 12.9 0.00 0.00 0.00 68 1011.1
20260506123537 6 4 4.8 12.9 0.00 0.00 0.00 68 1011.1
20260506123017 5 15 4.8 11.3 0.00 0.00 0.00 71 1011.1
20260506122516 5 2 4.8 11.3 0.00 0.00 0.00 74 1011.1
20260506122015 4 355 0.0 8.0 0.00 0.00 0.00 79 1010.9
20260506121515 4 297 1.6 4.8 0.00 0.00 0.00 79 1010.9
20260506121037 3 270 1.6 6.4 0.00 0.00 0.00 82 1010.8
20260506120516 3 266 3.2 6.4 0.00 0.00 0.00 83 1010.7
20260506120015 3 255 4.8 6.4 0.00 0.00 0.00 85 1010.7
20260506115515 3 256 3.2 6.4 0.00 0.00 0.00 87 1010.5
20260506115036 2 252 3.2 6.4 0.00 0.00 0.00 87 1010.4
20260506114557 2 253 3.2 4.8 0.00 0.00 0.00 87 1010.3
20260506114016 2 222 3.2 4.8 0.00 0.00 0.00 87 1010.2
20260506113515 1 142 0.0 3.2 0.00 0.00 0.00 85 1010.1
20260506113015 1 142 0.0 1.6 0.00 0.00 0.00 85 1009.9
20260506112515 1 0.0 0.0 0.00 0.00 0.00 84 1009.8
20260506112015 1 0.0 1.6 0.00 0.00 0.00 84 1009.8
20260506111515 1 141 0.0 1.6 0.00 0.00 0.00 83 1009.6
20260506111015 2 142 0.0 3.2 0.00 0.00 0.00 83 1009.5
20260506110515 2 142 1.6 3.2 0.00 0.00 0.00 83 1009.5
20260506110036 2 142 1.6 4.8 0.00 0.00 0.00 82 1009.5
20260506105516 2 141 0.0 4.8 0.00 0.00 0.00 82 1009.4
20260506105015 2 275 0.0 4.8 0.00 0.00 0.00 82 1009.2
20260506104515 2 275 1.6 4.8 0.00 0.00 0.00 82 1009.2
20260506104015 2 268 3.2 4.8 0.00 0.00 0.00 82 1009.3
20260506103515 2 279 3.2 4.8 0.00 0.00 0.00 82 1009.3
20260506103015 2 290 3.2 4.8 0.00 0.00 0.00 82 1009.3
20260506102515 2 298 1.6 3.2 0.00 0.00 0.00 82 1009.4
20260506102035 2 300 1.6 4.8 0.00 0.00 0.00 82 1009.3
20260506101536 2 296 1.6 4.8 0.00 0.00 0.00 82 1009.6
20260506101017 2 287 3.2 4.8 0.00 0.00 0.00 82 1009.5
20260506100535 2 297 1.6 4.8 0.00 0.00 0.00 83 1009.4
20260506100015 2 308 1.6 4.8 0.00 0.00 0.00 83 1009.4
20260506095515 2 303 1.6 4.8 0.00 0.00 0.00 83 1009.3
20260506095036 2 291 1.6 6.4 0.00 0.00 0.00 83 1009.3
20260506094515 2 275 3.2 6.4 0.00 0.00 0.00 83 1009.4
20260506094038 2 274 3.2 6.4 0.00 0.00 0.00 83 1009.4
20260506093516 2 291 1.6 4.8 0.00 0.00 0.00 82 1009.3
20260506093015 2 280 1.6 4.8 0.00 0.00 0.00 83 1009.2
20260506092535 2 281 1.6 4.8 0.00 0.00 0.00 82 1009.2
20260506092015 2 298 0.0 3.2 0.00 0.00 0.00 81 1009.1
20260506091535 2 0.0 0.0 0.00 0.00 0.00 81 1008.9
20260506091015 2 0.0 0.0 0.00 0.00 0.00 81 1008.9
20260506090515 2 0.0 0.0 0.00 0.00 0.00 81 1008.8
20260506090015 2 0.0 0.0 0.00 0.00 0.00 81 1008.8
20260506085515 2 0.0 0.0 0.00 0.00 0.00 81 1008.8
20260506085015 2 0.0 0.0 0.00 0.00 0.00 80 1008.7
20260506084515 2 0.0 0.0 0.00 0.00 0.00 79 1008.6
20260506084015 2 0.0 0.0 0.00 0.00 0.00 77 1008.6
20260506083515 3 0.0 0.0 0.00 0.00 0.00 77 1008.6
20260506083138 3 0.0 0.0 0.00 0.00 0.00 78 1008.6
20260506082515 3 0.0 0.0 0.00 0.00 0.00 77 1008.5
20260506082015 3 0.0 0.0 0.00 0.00 0.00 77 1008.5
20260506081515 3 0.0 0.0 0.00 0.00 0.00 76 1008.5
20260506081016 3 0.0 0.0 0.00 0.00 0.00 76 1008.5
20260506080515 3 0.0 0.0 0.00 0.00 0.00 75 1008.5
20260506073517 4 252 0.0 3.2 0.00 0.00 0.00 71 1008.6
20260506073017 4 0.0 3.2 0.00 0.00 0.00 71 1008.6
20260506072517 5 252 0.0 4.8 0.00 0.00 0.00 70 1008.5
20260506072017 5 299 1.6 4.8 0.00 0.00 0.00 69 1008.7